N1XBM-13 Weather Reports


time (UTC)temp
F
wind
direction
speed
knots
gust
knots
rain 1hr
in
rain 24hr
in
rain mn
in
humidity
%
barometer
mb
20260506073004 55 109 0.0 0.0 0.00 0.01 0.00 84 992.9
20260506071004 55 109 0.0 0.0 0.00 0.01 0.00 82 992.8
20260506062004 55 109 0.0 0.0 0.00 0.01 0.00 83 992.4
20260506061004 55 109 0.0 0.0 0.00 0.01 0.00 82 992.4
20260506051004 56 109 0.0 0.0 0.00 0.01 0.00 82 992.3
20260506044004 57 109 0.0 0.0 0.00 0.01 0.00 80 992.5
20260506043004 58 109 0.0 0.0 0.00 0.01 0.00 79 992.4
20260506042005 58 109 0.0 0.0 0.00 0.01 0.00 77 992.6
20260506041004 59 109 0.0 0.9 0.00 0.01 0.00 77 992.5
20260506040004 59 229 0.0 0.0 0.00 0.01 0.00 76 992.5
20260506035004 59 229 0.0 0.0 0.00 0.01 0.01 77 992.2
20260506034004 59 229 0.0 0.0 0.00 0.01 0.01 78 992.2
20260506033005 59 229 0.0 0.0 0.00 0.01 0.01 78 992.0
20260506032003 60 229 0.0 0.0 0.00 0.01 0.01 77 992.0
20260506030004 60 229 0.0 0.0 0.00 0.01 0.01 78 992.2
20260506025004 61 229 0.0 1.7 0.00 0.01 0.01 77 992.3
20260506024005 61 270 0.0 0.0 0.00 0.01 0.01 78 992.3
20260506023004 62 271 0.9 1.7 0.00 0.01 0.01 78 992.5
20260506022004 62 244 0.0 0.0 0.00 0.01 0.01 77 992.5
20260506021004 62 244 0.0 0.0 0.00 0.01 0.01 78 992.5
20260506020005 62 244 0.0 0.0 0.00 0.01 0.01 78 992.5
20260506015006 62 244 0.0 0.0 0.01 0.01 0.01 81 992.5
20260506014004 62 244 0.0 0.0 0.01 0.01 0.01 81 992.7
20260506013004 62 244 0.0 0.0 0.01 0.01 0.01 81 992.5
20260506012004 62 244 0.0 0.0 0.01 0.01 0.01 80 992.5
20260506011003 63 244 0.0 0.0 0.01 0.01 0.01 80 992.7
20260506010004 63 244 0.0 0.0 0.01 0.01 0.01 80 992.6
20260506005005 62 244 0.0 5.2 0.00 0.00 0.00 82 992.4
20260506004005 62 227 0.0 2.6 0.00 0.00 0.00 83 992.1
20260506003004 62 174 0.0 0.0 0.00 0.00 0.00 84 992.0
20260506002005 62 174 0.0 1.7 0.00 0.00 0.00 83 991.7
20260506001004 63 4 0.0 1.7 0.00 0.00 0.00 82 991.0
20260506000005 63 9 0.0 1.7 0.00 0.00 0.00 82 990.6
20260505235004 65 10 0.9 2.6 0.00 0.00 0.00 79 990.5
20260505234004 67 179 0.9 2.6 0.00 0.00 0.00 68 991.2
20260505233004 68 13 0.0 2.6 0.00 0.00 0.00 64 991.2
20260505232004 68 319 0.0 7.8 0.00 0.00 0.00 60 991.2
20260505230004 69 238 1.7 6.1 0.00 0.00 0.00 54 991.2
20260505225004 69 249 2.6 10.4 0.00 0.00 0.00 52 991.0
20260505224004 69 209 4.3 11.3 0.00 0.00 0.00 50 988.7
20260505223004 69 237 4.3 11.3 0.00 0.00 0.00 50 988.5
20260505222003 69 248 3.5 11.3 0.00 0.00 0.00 49 988.4
20260505221005 70 240 4.3 12.2 0.00 0.00 0.00 49 988.3
20260505215004 71 209 2.6 13.0 0.00 0.00 0.00 47 988.2
20260505213004 72 213 5.2 13.9 0.00 0.00 0.00 47 988.1
20260505212004 72 231 5.2 13.0 0.00 0.00 0.00 47 988.1
20260505211004 72 172 1.7 10.4 0.00 0.00 0.00 47 987.9
20260505210004 72 251 4.3 8.7 0.00 0.00 0.00 45 987.9
20260505205004 73 199 4.3 11.3 0.00 0.00 0.00 46 988.0
20260505204005 73 248 3.5 10.4 0.00 0.00 0.00 46 988.0
20260505203004 73 257 3.5 12.2 0.00 0.00 0.00 45 988.1
20260505202005 74 225 4.3 14.8 0.00 0.00 0.00 44 988.1
20260505200004 74 227 5.2 13.0 0.00 0.00 0.00 44 988.3
20260505195004 75 246 4.3 11.3 0.00 0.00 0.00 42 988.3
20260505194004 74 224 6.1 14.8 0.00 0.00 0.00 42 988.5
20260505193005 75 239 5.2 12.2 0.00 0.00 0.00 42 988.5
20260505192004 74 207 5.2 18.2 0.00 0.00 0.00 42 988.7
20260505190005 75 223 4.3 10.4 0.00 0.00 0.00 42 989.2
20260505185005 75 189 4.3 10.4 0.00 0.00 0.00 42 989.2
20260505184004 76 234 5.2 11.3 0.00 0.00 0.00 42 989.2
20260505182005 76 265 5.2 10.4 0.00 0.00 0.00 41 989.5
20260505181005 75 230 4.3 12.2 0.00 0.00 0.00 42 989.5
20260505180004 76 225 3.5 11.3 0.00 0.00 0.00 43 989.6
20260505175005 76 209 4.3 10.4 0.00 0.00 0.00 42 989.5
20260505174004 76 247 4.3 8.7 0.00 0.00 0.00 42 989.7
20260505172004 76 238 4.3 10.4 0.00 0.00 0.00 43 989.9
20260505171004 77 247 3.5 7.8 0.00 0.00 0.00 41 990.1
20260505165003 77 191 4.3 12.2 0.00 0.00 0.00 39 990.4
20260505163005 76 241 3.5 11.3 0.00 0.00 0.00 39 990.9
20260505161004 73 252 4.3 7.8 0.00 0.00 0.00 44 991.2
20260505153004 71 236 4.3 7.8 0.00 0.00 0.00 45 992.0
20260505152004 71 165 4.3 8.7 0.00 0.00 0.00 45 992.2
20260505151003 71 226 1.7 7.8 0.00 0.00 0.00 46 992.2
20260505125003 63 253 1.7 4.3 0.00 0.00 0.00 54 992.4
20260505123004 62 245 1.7 5.2 0.00 0.00 0.00 55 992.2
20260505121004 60 211 2.6 7.0 0.00 0.00 0.00 58 992.5
20260505120005 59 207 1.7 4.3 0.00 0.00 0.00 60 992.5
20260505115004 58 179 1.7 7.0 0.00 0.00 0.00 63 992.5
20260505114004 57 245 2.6 4.3 0.00 0.00 0.00 64 992.7
20260505112004 54 234 0.0 2.6 0.00 0.00 0.00 71 992.6
20260505111004 52 239 0.9 4.3 0.00 0.00 0.00 74 992.7
20260505101004 50 193 0.0 0.0 0.00 0.00 0.00 77 992.7
20260505100004 50 193 0.0 1.7 0.00 0.00 0.00 76 992.6
20260505095004 50 244 0.0 0.0 0.00 0.00 0.00 75 992.6
20260505094005 50 244 0.0 0.0 0.00 0.00 0.00 76 992.6
20260505092005 50 244 0.0 1.7 0.00 0.00 0.00 75 992.7
20260505091005 51 213 0.0 0.0 0.00 0.00 0.00 72 992.7
20260505090004 52 213 0.0 0.9 0.00 0.00 0.00 70 992.6
20260505085004 52 216 0.0 1.7 0.00 0.00 0.00 69 992.7
20260505084003 53 216 0.0 0.0 0.00 0.00 0.00 68 992.8
20260505083005 53 216 0.9 4.3 0.00 0.00 0.00 67 992.8
20260505082004 54 232 0.9 4.3 0.00 0.00 0.00 66 992.9